Year,Month,Day,Hour,Minute,Value (Times are PST for temperature in C)
2018,10,22,00,00,12.70
2018,10,22,00,01,12.70
2018,10,22,00,02,12.70
2018,10,22,00,03,12.70
2018,10,22,00,04,12.70
2018,10,22,00,05,12.70
2018,10,22,00,06,12.70
2018,10,22,00,07,12.70
2018,10,22,00,08,12.70
2018,10,22,00,09,12.70
2018,10,22,00,10,12.80
2018,10,22,00,11,12.80
2018,10,22,00,12,12.80
2018,10,22,00,13,12.80
2018,10,22,00,14,12.80
2018,10,22,00,15,12.80
2018,10,22,00,16,12.80
2018,10,22,00,17,12.80
2018,10,22,00,18,12.80
2018,10,22,00,19,12.80
2018,10,22,00,20,12.80
2018,10,22,00,21,12.80
2018,10,22,00,22,12.80
2018,10,22,00,23,12.70
2018,10,22,00,24,12.70
2018,10,22,00,25,12.70
2018,10,22,00,26,12.70
2018,10,22,00,27,12.70
2018,10,22,00,28,12.60
2018,10,22,00,29,12.60
2018,10,22,00,30,12.60
2018,10,22,00,31,12.50
2018,10,22,00,32,12.50
2018,10,22,00,33,12.40
2018,10,22,00,34,12.40
2018,10,22,00,35,12.40
2018,10,22,00,36,12.30
2018,10,22,00,37,12.30
2018,10,22,00,38,12.30
2018,10,22,00,39,12.30
2018,10,22,00,40,12.20
2018,10,22,00,41,12.20
2018,10,22,00,42,12.20
2018,10,22,00,43,12.20
2018,10,22,00,44,12.10
2018,10,22,00,45,12.10
2018,10,22,00,46,12.10
2018,10,22,00,47,12.10
2018,10,22,00,48,12.00
2018,10,22,00,49,12.00
2018,10,22,00,50,12.00
2018,10,22,00,51,12.00
2018,10,22,00,52,11.90
2018,10,22,00,53,11.90
2018,10,22,00,54,11.90
2018,10,22,00,55,11.90
2018,10,22,00,56,11.80
2018,10,22,00,57,11.80
2018,10,22,00,58,11.80
2018,10,22,00,59,11.80
2018,10,22,01,00,11.80
2018,10,22,01,01,11.70
2018,10,22,01,02,11.70
2018,10,22,01,03,11.70
2018,10,22,01,04,11.70
2018,10,22,01,05,11.60
2018,10,22,01,06,11.60
2018,10,22,01,07,11.60
2018,10,22,01,08,11.60
2018,10,22,01,09,11.60
2018,10,22,01,10,11.50
2018,10,22,01,11,11.50
2018,10,22,01,12,11.50
2018,10,22,01,13,11.50
2018,10,22,01,14,11.40
2018,10,22,01,15,11.40
2018,10,22,01,16,11.40
2018,10,22,01,17,11.40
2018,10,22,01,18,11.40
2018,10,22,01,19,11.40
2018,10,22,01,20,11.30
2018,10,22,01,21,11.30
2018,10,22,01,22,11.30
2018,10,22,01,23,11.20
2018,10,22,01,24,11.20
2018,10,22,01,25,11.20
2018,10,22,01,26,11.20
2018,10,22,01,27,11.10
2018,10,22,01,28,11.10
2018,10,22,01,29,11.10
2018,10,22,01,30,11.10
2018,10,22,01,31,11.10
2018,10,22,01,32,11.10
2018,10,22,01,33,11.20
2018,10,22,01,34,11.20
2018,10,22,01,35,11.20
2018,10,22,01,36,11.20
2018,10,22,01,37,11.20
2018,10,22,01,38,11.20
2018,10,22,01,39,11.20
2018,10,22,01,40,11.20
2018,10,22,01,41,11.20
2018,10,22,01,42,11.20
2018,10,22,01,43,11.20
2018,10,22,01,44,11.20
2018,10,22,01,45,11.10
2018,10,22,01,46,11.10
2018,10,22,01,47,11.10
2018,10,22,01,48,11.10
2018,10,22,01,49,11.10
2018,10,22,01,50,11.10
2018,10,22,01,51,11.10
2018,10,22,01,52,11.10
2018,10,22,01,53,11.10
2018,10,22,01,54,11.10
2018,10,22,01,55,11.10
2018,10,22,01,56,11.20
2018,10,22,01,57,11.20
2018,10,22,01,58,11.20
2018,10,22,01,59,11.20
2018,10,22,02,00,11.20
2018,10,22,02,01,11.20
2018,10,22,02,02,11.20
2018,10,22,02,03,11.20
2018,10,22,02,04,11.20
2018,10,22,02,05,11.20
2018,10,22,02,06,11.20
2018,10,22,02,07,11.20
2018,10,22,02,08,11.20
2018,10,22,02,09,11.20
2018,10,22,02,10,11.30
2018,10,22,02,11,11.30
2018,10,22,02,12,11.30
2018,10,22,02,13,11.30
2018,10,22,02,14,11.30
2018,10,22,02,15,11.30
2018,10,22,02,16,11.30
2018,10,22,02,17,11.30
2018,10,22,02,18,11.30
2018,10,22,02,19,11.30
2018,10,22,02,20,11.30
2018,10,22,02,21,11.30
2018,10,22,02,22,11.30
2018,10,22,02,23,11.30
2018,10,22,02,24,11.30
2018,10,22,02,25,11.30
2018,10,22,02,26,11.20
2018,10,22,02,27,11.20
2018,10,22,02,28,11.20
2018,10,22,02,29,11.20
2018,10,22,02,30,11.20
2018,10,22,02,31,11.20
2018,10,22,02,32,11.20
2018,10,22,02,33,11.20
2018,10,22,02,34,11.20
2018,10,22,02,35,11.20
2018,10,22,02,36,11.20
2018,10,22,02,37,11.20
2018,10,22,02,38,11.20
2018,10,22,02,39,11.20
2018,10,22,02,40,11.10
2018,10,22,02,41,11.10
2018,10,22,02,42,11.10
2018,10,22,02,43,11.10
2018,10,22,02,44,11.10
2018,10,22,02,45,11.10
2018,10,22,02,46,11.10
2018,10,22,02,47,11.10
2018,10,22,02,48,11.10
2018,10,22,02,49,11.10
2018,10,22,02,50,11.10
2018,10,22,02,51,11.10
2018,10,22,02,52,11.10
2018,10,22,02,53,11.10
2018,10,22,02,54,11.10
2018,10,22,02,55,11.10
2018,10,22,02,56,11.10
2018,10,22,02,57,11.10
2018,10,22,02,58,11.10
2018,10,22,02,59,11.10
2018,10,22,03,00,11.10
2018,10,22,03,01,11.10
2018,10,22,03,02,11.10
2018,10,22,03,03,11.10
2018,10,22,03,04,11.10
2018,10,22,03,05,11.10
2018,10,22,03,06,11.00
2018,10,22,03,07,11.00
2018,10,22,03,08,11.00
2018,10,22,03,09,11.00
2018,10,22,03,10,10.90
2018,10,22,03,11,10.90
2018,10,22,03,12,10.90
2018,10,22,03,13,10.90
2018,10,22,03,14,10.80
2018,10,22,03,15,10.80
2018,10,22,03,16,10.80
2018,10,22,03,17,10.80
2018,10,22,03,18,10.80
2018,10,22,03,19,10.80
2018,10,22,03,20,10.80
2018,10,22,03,21,10.80
2018,10,22,03,22,10.80
2018,10,22,03,23,10.80
2018,10,22,03,24,10.80
2018,10,22,03,25,10.80
2018,10,22,03,26,10.80
2018,10,22,03,27,10.80
2018,10,22,03,28,10.80
2018,10,22,03,29,10.90
2018,10,22,03,30,10.90
2018,10,22,03,31,10.90
2018,10,22,03,32,10.90
2018,10,22,03,33,10.90
2018,10,22,03,34,10.90
2018,10,22,03,35,10.90
2018,10,22,03,36,10.90
2018,10,22,03,37,10.90
2018,10,22,03,38,10.90
2018,10,22,03,39,10.90
2018,10,22,03,40,10.90
2018,10,22,03,41,10.90
2018,10,22,03,42,10.90
2018,10,22,03,43,10.90
2018,10,22,03,44,10.90
2018,10,22,03,45,10.80
2018,10,22,03,46,10.80
2018,10,22,03,47,10.80
2018,10,22,03,48,10.70
2018,10,22,03,49,10.70
2018,10,22,03,50,10.70
2018,10,22,03,51,10.70
2018,10,22,03,52,10.70
2018,10,22,03,53,10.70
2018,10,22,03,54,10.60
2018,10,22,03,55,10.60
2018,10,22,03,56,10.60
2018,10,22,03,57,10.60
2018,10,22,03,58,10.60
2018,10,22,03,59,10.60
2018,10,22,04,00,10.50
2018,10,22,04,01,10.50
2018,10,22,04,02,10.50
2018,10,22,04,03,10.50
2018,10,22,04,04,10.40
2018,10,22,04,05,10.40
2018,10,22,04,06,10.40
2018,10,22,04,07,10.40
2018,10,22,04,08,10.40
2018,10,22,04,09,10.40
2018,10,22,04,10,10.40
2018,10,22,04,11,10.40
2018,10,22,04,12,10.40
2018,10,22,04,13,10.40
2018,10,22,04,14,10.30
2018,10,22,04,15,10.30
2018,10,22,04,16,10.30
2018,10,22,04,17,10.30
2018,10,22,04,18,10.40
2018,10,22,04,19,10.40
2018,10,22,04,20,10.40
2018,10,22,04,21,10.40
2018,10,22,04,22,10.40
2018,10,22,04,23,10.40
2018,10,22,04,24,10.40
2018,10,22,04,25,10.40
2018,10,22,04,26,10.50
2018,10,22,04,27,10.50
2018,10,22,04,28,10.50
2018,10,22,04,29,10.50
2018,10,22,04,30,10.60
2018,10,22,04,31,10.60
2018,10,22,04,32,10.60
2018,10,22,04,33,10.60
2018,10,22,04,34,10.60
2018,10,22,04,35,10.60
2018,10,22,04,36,10.60
2018,10,22,04,37,10.60
2018,10,22,04,38,10.60
2018,10,22,04,39,10.60
2018,10,22,04,40,10.60
2018,10,22,04,41,10.60
2018,10,22,04,42,10.60
2018,10,22,04,43,10.60
2018,10,22,04,44,10.60
2018,10,22,04,45,10.60
2018,10,22,04,46,10.50
2018,10,22,04,47,10.50
2018,10,22,04,48,10.50
2018,10,22,04,49,10.50
2018,10,22,04,50,10.40
2018,10,22,04,51,10.40
2018,10,22,04,52,10.40
2018,10,22,04,53,10.40
2018,10,22,04,54,10.40
2018,10,22,04,55,10.30
2018,10,22,04,56,10.30
2018,10,22,04,57,10.30
2018,10,22,04,58,10.30
2018,10,22,04,59,10.30
2018,10,22,05,00,10.20
2018,10,22,05,01,10.20
2018,10,22,05,02,10.20
2018,10,22,05,03,10.10
2018,10,22,05,04,10.10
2018,10,22,05,05,10.10
2018,10,22,05,06,10.10
2018,10,22,05,07,10.00
2018,10,22,05,08,10.00
2018,10,22,05,09,10.00
2018,10,22,05,10,10.00
2018,10,22,05,11,9.90
2018,10,22,05,12,9.90
2018,10,22,05,13,9.90
2018,10,22,05,14,9.90
2018,10,22,05,15,9.80
2018,10,22,05,16,9.80
2018,10,22,05,17,9.80
2018,10,22,05,18,9.80
2018,10,22,05,19,9.80
2018,10,22,05,20,9.80
2018,10,22,05,21,9.80
2018,10,22,05,22,9.80
2018,10,22,05,23,9.80
2018,10,22,05,24,9.70
2018,10,22,05,25,9.70
2018,10,22,05,26,9.80
2018,10,22,05,27,9.80
2018,10,22,05,28,9.80
2018,10,22,05,29,9.80
2018,10,22,05,30,9.80
2018,10,22,05,31,9.80
2018,10,22,05,32,9.80
2018,10,22,05,33,9.80
2018,10,22,05,34,9.80
2018,10,22,05,35,9.70
2018,10,22,05,36,9.70
2018,10,22,05,37,9.70
2018,10,22,05,38,9.70
2018,10,22,05,39,9.70
2018,10,22,05,40,9.70
2018,10,22,05,41,9.60
2018,10,22,05,42,9.60
2018,10,22,05,43,9.60
2018,10,22,05,44,9.60
2018,10,22,05,45,9.60
2018,10,22,05,46,9.60
2018,10,22,05,47,9.60
2018,10,22,05,48,9.60
2018,10,22,05,49,9.60
2018,10,22,05,50,9.60
2018,10,22,05,51,9.60
2018,10,22,05,52,9.60
2018,10,22,05,53,9.70
2018,10,22,05,54,9.70
2018,10,22,05,55,9.70
2018,10,22,05,56,9.70
2018,10,22,05,57,9.80
2018,10,22,05,58,9.80
2018,10,22,05,59,9.80
2018,10,22,06,00,9.80
2018,10,22,06,01,9.80
2018,10,22,06,02,9.80
2018,10,22,06,03,9.80
2018,10,22,06,04,9.80
2018,10,22,06,05,9.80
2018,10,22,06,06,9.80
2018,10,22,06,07,9.80
2018,10,22,06,08,9.80
2018,10,22,06,09,9.80
2018,10,22,06,10,9.80
2018,10,22,06,11,9.80
2018,10,22,06,12,9.80
2018,10,22,06,13,9.80
2018,10,22,06,14,9.80
2018,10,22,06,15,9.80
2018,10,22,06,16,9.80
2018,10,22,06,17,9.80
2018,10,22,06,18,9.80
2018,10,22,06,19,9.80
2018,10,22,06,20,9.80
2018,10,22,06,21,9.80
2018,10,22,06,22,9.80
2018,10,22,06,23,9.80
2018,10,22,06,24,9.80
2018,10,22,06,25,9.80
2018,10,22,06,26,9.80
2018,10,22,06,27,9.80
2018,10,22,06,28,9.70
2018,10,22,06,29,9.70
2018,10,22,06,30,9.70
2018,10,22,06,31,9.70
2018,10,22,06,32,9.70
2018,10,22,06,33,9.60
2018,10,22,06,34,9.60
2018,10,22,06,35,9.50
2018,10,22,06,36,9.50
2018,10,22,06,37,9.40
2018,10,22,06,38,9.30
2018,10,22,06,39,9.30
2018,10,22,06,40,9.20
2018,10,22,06,41,9.20
2018,10,22,06,42,9.10
2018,10,22,06,43,9.10
2018,10,22,06,44,9.00
2018,10,22,06,45,8.90
2018,10,22,06,46,8.90
2018,10,22,06,47,8.90
2018,10,22,06,48,8.80
2018,10,22,06,49,8.80
2018,10,22,06,50,8.70
2018,10,22,06,51,8.70
2018,10,22,06,52,8.70
2018,10,22,06,53,8.70
2018,10,22,06,54,8.70
2018,10,22,06,55,8.60
2018,10,22,06,56,8.60
2018,10,22,06,57,8.60
2018,10,22,06,58,8.60
2018,10,22,06,59,8.60
2018,10,22,07,00,8.50
2018,10,22,07,01,8.50
2018,10,22,07,02,8.50
2018,10,22,07,03,8.50
2018,10,22,07,04,8.50
2018,10,22,07,05,8.50
2018,10,22,07,06,8.50
2018,10,22,07,07,8.50
2018,10,22,07,08,8.50
2018,10,22,07,09,8.60
2018,10,22,07,10,8.60
2018,10,22,07,11,8.60
2018,10,22,07,12,8.60
2018,10,22,07,13,8.70
2018,10,22,07,14,8.70
2018,10,22,07,15,8.70
2018,10,22,07,16,8.80
2018,10,22,07,17,8.80
2018,10,22,07,18,8.80
2018,10,22,07,19,8.80
2018,10,22,07,20,8.90
2018,10,22,07,21,8.90
2018,10,22,07,22,9.00
2018,10,22,07,23,9.00
2018,10,22,07,24,9.00
2018,10,22,07,25,9.00
2018,10,22,07,26,9.00
2018,10,22,07,27,9.00
2018,10,22,07,28,9.00
2018,10,22,07,29,9.00
2018,10,22,07,30,9.00
2018,10,22,07,31,9.00
2018,10,22,07,32,9.00
2018,10,22,07,33,8.90
2018,10,22,07,34,8.90
2018,10,22,07,35,8.90
2018,10,22,07,36,8.90
2018,10,22,07,37,8.90
2018,10,22,07,38,9.00
2018,10,22,07,39,9.00
2018,10,22,07,40,9.00
2018,10,22,07,41,9.00
2018,10,22,07,42,9.00
2018,10,22,07,43,9.00
2018,10,22,07,44,9.00
2018,10,22,07,45,9.00
2018,10,22,07,46,9.00
2018,10,22,07,47,9.00
2018,10,22,07,48,9.00
2018,10,22,07,49,9.00
2018,10,22,07,50,9.00
2018,10,22,07,51,9.00
2018,10,22,07,52,9.00
2018,10,22,07,53,9.00
2018,10,22,07,54,9.00
2018,10,22,07,55,9.00
2018,10,22,07,56,9.00
2018,10,22,07,57,9.00
2018,10,22,07,58,9.00
2018,10,22,07,59,8.90
2018,10,22,08,00,8.90
2018,10,22,08,01,8.90
2018,10,22,08,02,8.90
2018,10,22,08,03,8.90
2018,10,22,08,04,8.90
2018,10,22,08,05,9.00
2018,10,22,08,06,9.00
2018,10,22,08,07,9.00
2018,10,22,08,08,9.00
2018,10,22,08,09,9.00
2018,10,22,08,10,9.00
2018,10,22,08,11,9.00
2018,10,22,08,12,9.00
2018,10,22,08,13,9.10
2018,10,22,08,14,9.00
2018,10,22,08,15,9.10
2018,10,22,08,16,9.10
2018,10,22,08,17,9.10
2018,10,22,08,18,9.10
2018,10,22,08,19,9.10
2018,10,22,08,20,9.10
2018,10,22,08,21,9.10
2018,10,22,08,22,9.10
2018,10,22,08,23,9.10
2018,10,22,08,24,9.10
2018,10,22,08,25,9.20
2018,10,22,08,26,9.20
2018,10,22,08,27,9.20
2018,10,22,08,28,9.20
2018,10,22,08,29,9.30
2018,10,22,08,30,9.30
2018,10,22,08,31,9.30
2018,10,22,08,32,9.40
2018,10,22,08,33,9.40
2018,10,22,08,34,9.50
2018,10,22,08,35,9.60
2018,10,22,08,36,9.60
2018,10,22,08,37,9.70
2018,10,22,08,38,9.70
2018,10,22,08,39,9.80
2018,10,22,08,40,9.80
2018,10,22,08,41,10.00
2018,10,22,08,42,10.10
2018,10,22,08,43,10.10
2018,10,22,08,44,10.20
2018,10,22,08,45,10.30
2018,10,22,08,46,10.40
2018,10,22,08,47,10.50
2018,10,22,08,48,10.60
2018,10,22,08,49,10.60
2018,10,22,08,50,10.70
2018,10,22,08,51,10.70
2018,10,22,08,52,10.70
2018,10,22,08,53,10.80
2018,10,22,08,54,10.80
2018,10,22,08,55,10.80
2018,10,22,08,56,10.80
2018,10,22,08,57,10.80
2018,10,22,08,58,10.80
2018,10,22,08,59,10.80
2018,10,22,09,00,10.80
2018,10,22,09,01,10.90
2018,10,22,09,02,10.90
2018,10,22,09,03,10.90
2018,10,22,09,04,10.90
2018,10,22,09,05,10.90
2018,10,22,09,06,10.90
2018,10,22,09,07,10.90
2018,10,22,09,08,11.00
2018,10,22,09,09,11.00
2018,10,22,09,10,11.10
2018,10,22,09,11,11.10
2018,10,22,09,12,11.10
2018,10,22,09,13,11.10
2018,10,22,09,14,11.00
2018,10,22,09,15,11.00
2018,10,22,09,16,10.90
2018,10,22,09,17,10.80
2018,10,22,09,18,10.80
2018,10,22,09,19,10.70
2018,10,22,09,20,10.70
2018,10,22,09,21,10.60
2018,10,22,09,22,10.60
2018,10,22,09,23,10.50
2018,10,22,09,24,10.50
2018,10,22,09,25,10.50
2018,10,22,09,26,10.40
2018,10,22,09,27,10.40
2018,10,22,09,28,10.30
2018,10,22,09,29,10.30
2018,10,22,09,30,10.30
2018,10,22,09,31,10.30
2018,10,22,09,32,10.20
2018,10,22,09,33,10.20
2018,10,22,09,34,10.20
2018,10,22,09,35,10.20
2018,10,22,09,36,10.20
2018,10,22,09,37,10.20
2018,10,22,09,38,10.20
2018,10,22,09,39,10.20
2018,10,22,09,40,10.20
2018,10,22,09,41,10.20
2018,10,22,09,42,10.20
2018,10,22,09,43,10.20
2018,10,22,09,44,10.20
2018,10,22,09,45,10.20
2018,10,22,09,46,10.10
2018,10,22,09,47,10.10
2018,10,22,09,48,10.10
2018,10,22,09,49,10.10
2018,10,22,09,50,10.10
2018,10,22,09,51,10.10
2018,10,22,09,52,10.10
2018,10,22,09,53,10.10
2018,10,22,09,54,10.10
2018,10,22,09,55,10.10
2018,10,22,09,56,10.10
2018,10,22,09,57,10.10
2018,10,22,09,58,10.10
2018,10,22,09,59,10.10
2018,10,22,10,00,10.20
2018,10,22,10,01,10.20
2018,10,22,10,02,10.20
2018,10,22,10,03,10.20
2018,10,22,10,04,10.30
2018,10,22,10,05,10.30
2018,10,22,10,06,10.30
2018,10,22,10,07,10.40
2018,10,22,10,08,10.40
2018,10,22,10,09,10.40
2018,10,22,10,10,10.50
2018,10,22,10,11,10.50
2018,10,22,10,12,10.50
2018,10,22,10,13,10.60
2018,10,22,10,14,10.60
2018,10,22,10,15,10.60
2018,10,22,10,16,10.60
2018,10,22,10,17,10.70
2018,10,22,10,18,10.70
2018,10,22,10,19,10.70
2018,10,22,10,20,10.70
2018,10,22,10,21,10.70
2018,10,22,10,22,10.70
2018,10,22,10,23,10.70
2018,10,22,10,24,10.70
2018,10,22,10,25,10.60
2018,10,22,10,26,10.60
2018,10,22,10,27,10.60
2018,10,22,10,28,10.60
2018,10,22,10,29,10.60
2018,10,22,10,30,10.60
2018,10,22,10,31,10.60
2018,10,22,10,32,10.60
2018,10,22,10,33,10.60
2018,10,22,10,34,10.70
2018,10,22,10,35,10.80
2018,10,22,10,36,10.90
2018,10,22,10,37,11.00
2018,10,22,10,38,11.10
2018,10,22,10,39,11.20
2018,10,22,10,40,11.20
2018,10,22,10,41,11.20
2018,10,22,10,42,11.30
2018,10,22,10,43,11.30
2018,10,22,10,44,11.30
2018,10,22,10,45,11.40
2018,10,22,10,46,11.40
2018,10,22,10,47,11.40
2018,10,22,10,48,11.40
2018,10,22,10,49,11.40
2018,10,22,10,50,11.40
2018,10,22,10,51,11.40
2018,10,22,10,52,11.40
2018,10,22,10,53,11.40
2018,10,22,10,54,11.40
2018,10,22,10,55,11.40
2018,10,22,10,56,11.40
2018,10,22,10,57,11.40
2018,10,22,10,58,11.40
2018,10,22,10,59,11.40
2018,10,22,11,00,11.40
2018,10,22,11,01,11.40
2018,10,22,11,02,11.40
2018,10,22,11,03,11.40
2018,10,22,11,04,11.40
2018,10,22,11,05,11.50
2018,10,22,11,06,11.60
2018,10,22,11,07,11.60
2018,10,22,11,08,11.70
2018,10,22,11,09,11.70
2018,10,22,11,10,11.70
2018,10,22,11,11,11.80
2018,10,22,11,12,11.80
2018,10,22,11,13,11.80
2018,10,22,11,14,11.80
2018,10,22,11,15,11.80
2018,10,22,11,16,11.80
2018,10,22,11,17,11.80
2018,10,22,11,18,11.80
2018,10,22,11,19,11.80
2018,10,22,11,20,11.90
2018,10,22,11,21,11.90
2018,10,22,11,22,11.90
2018,10,22,11,23,11.90
2018,10,22,11,24,11.90
2018,10,22,11,25,11.90
2018,10,22,11,26,12.00
2018,10,22,11,27,12.10
2018,10,22,11,28,12.00
2018,10,22,11,29,11.90
2018,10,22,11,30,11.90
2018,10,22,11,31,11.80
2018,10,22,11,32,11.80
2018,10,22,11,33,11.80
2018,10,22,11,34,11.80
2018,10,22,11,35,11.80
2018,10,22,11,36,11.70
2018,10,22,11,37,11.70
2018,10,22,11,38,11.60
2018,10,22,11,39,11.60
2018,10,22,11,40,11.60
2018,10,22,11,41,11.70
2018,10,22,11,42,11.70
2018,10,22,11,43,11.70
2018,10,22,11,44,11.60
2018,10,22,11,45,11.60
2018,10,22,11,46,11.60
2018,10,22,11,47,11.60
2018,10,22,11,48,11.60
2018,10,22,11,49,11.70
2018,10,22,11,50,11.70
2018,10,22,11,51,11.70
2018,10,22,11,52,11.70
2018,10,22,11,53,11.80
2018,10,22,11,54,11.80
2018,10,22,11,55,11.90
2018,10,22,11,56,11.90
2018,10,22,11,57,11.90
2018,10,22,11,58,12.00
2018,10,22,11,59,12.00
2018,10,22,12,00,12.10
2018,10,22,12,01,12.10
2018,10,22,12,02,12.10
2018,10,22,12,03,12.20
2018,10,22,12,04,12.20
2018,10,22,12,05,12.20
2018,10,22,12,06,12.30
2018,10,22,12,07,12.30
2018,10,22,12,08,12.30
2018,10,22,12,09,12.30
2018,10,22,12,10,12.30
2018,10,22,12,11,12.30
2018,10,22,12,12,12.30
2018,10,22,12,13,12.20
2018,10,22,12,14,12.20
2018,10,22,12,15,12.20
2018,10,22,12,16,12.10
2018,10,22,12,17,12.10
2018,10,22,12,18,12.20
2018,10,22,12,19,12.20
2018,10,22,12,20,12.20
2018,10,22,12,21,12.20
2018,10,22,12,22,12.30
2018,10,22,12,23,12.30
2018,10,22,12,24,12.30
2018,10,22,12,25,12.30
2018,10,22,12,26,12.40
2018,10,22,12,27,12.50
2018,10,22,12,28,12.50
2018,10,22,12,29,12.60
2018,10,22,12,30,12.70
2018,10,22,12,31,12.80
2018,10,22,12,32,12.80
2018,10,22,12,33,12.80
2018,10,22,12,34,12.80
2018,10,22,12,35,12.80
2018,10,22,12,36,12.80
2018,10,22,12,37,12.80
2018,10,22,12,38,12.80
2018,10,22,12,39,12.80
2018,10,22,12,40,12.80
2018,10,22,12,41,12.80
2018,10,22,12,42,12.80
2018,10,22,12,43,12.80
2018,10,22,12,44,12.80
2018,10,22,12,45,12.80
2018,10,22,12,46,12.90
2018,10,22,12,47,12.90
2018,10,22,12,48,12.90
2018,10,22,12,49,12.90
2018,10,22,12,50,13.00
2018,10,22,12,51,13.00
2018,10,22,12,52,13.00
2018,10,22,12,53,13.10
2018,10,22,12,54,13.10
2018,10,22,12,55,13.10
2018,10,22,12,56,13.10
2018,10,22,12,57,13.20
2018,10,22,12,58,13.20
2018,10,22,12,59,13.30
2018,10,22,13,00,13.40
2018,10,22,13,01,13.50
2018,10,22,13,02,13.50
2018,10,22,13,03,13.50
2018,10,22,13,04,13.40
2018,10,22,13,05,13.40
2018,10,22,13,06,13.40
2018,10,22,13,07,13.40
2018,10,22,13,08,13.30
2018,10,22,13,09,13.30
2018,10,22,13,10,13.40
2018,10,22,13,11,13.50
2018,10,22,13,12,13.60
2018,10,22,13,13,13.60
2018,10,22,13,14,13.70
2018,10,22,13,15,13.70
2018,10,22,13,16,13.70
2018,10,22,13,17,13.60
2018,10,22,13,18,13.60
2018,10,22,13,19,13.70
2018,10,22,13,20,13.70
2018,10,22,13,21,13.70
2018,10,22,13,22,13.70
2018,10,22,13,23,13.70
2018,10,22,13,24,13.80
2018,10,22,13,25,13.80
2018,10,22,13,26,13.80
2018,10,22,13,27,13.70
2018,10,22,13,28,13.70
2018,10,22,13,29,13.70
2018,10,22,13,30,13.70
2018,10,22,13,31,13.70
2018,10,22,13,32,13.70
2018,10,22,13,33,13.70
2018,10,22,13,34,13.70
2018,10,22,13,35,13.70
2018,10,22,13,36,13.60
2018,10,22,13,37,13.60
2018,10,22,13,38,13.60
2018,10,22,13,39,13.60
2018,10,22,13,40,13.60
2018,10,22,13,41,13.60
2018,10,22,13,42,13.60
2018,10,22,13,43,13.60
2018,10,22,13,44,13.50
2018,10,22,13,45,13.50
2018,10,22,13,46,13.50
2018,10,22,13,47,13.50
2018,10,22,13,48,13.40
2018,10,22,13,49,13.50
2018,10,22,13,50,13.50
2018,10,22,13,51,13.50
2018,10,22,13,52,13.60
2018,10,22,13,53,13.60
2018,10,22,13,54,13.60
2018,10,22,13,55,13.70
2018,10,22,13,56,13.70
2018,10,22,13,57,13.80
2018,10,22,13,58,13.80
2018,10,22,13,59,13.80
2018,10,22,14,00,13.80
2018,10,22,14,01,13.80
2018,10,22,14,02,13.70
2018,10,22,14,03,13.70
2018,10,22,14,04,13.70
2018,10,22,14,05,13.60
2018,10,22,14,06,13.60
2018,10,22,14,07,13.60
2018,10,22,14,08,13.60
2018,10,22,14,09,13.60
2018,10,22,14,10,13.50
2018,10,22,14,11,13.50
2018,10,22,14,12,13.50
2018,10,22,14,13,13.50
2018,10,22,14,14,13.50
2018,10,22,14,15,13.50
2018,10,22,14,16,13.50
2018,10,22,14,17,13.50
2018,10,22,14,18,13.50
2018,10,22,14,19,13.60
2018,10,22,14,20,13.60
2018,10,22,14,21,13.60
2018,10,22,14,22,13.60
2018,10,22,14,23,13.60
2018,10,22,14,24,13.70
2018,10,22,14,25,13.70
2018,10,22,14,26,13.70
2018,10,22,14,27,13.70
2018,10,22,14,28,13.70
2018,10,22,14,29,13.70
2018,10,22,14,30,13.70
2018,10,22,14,31,13.60
2018,10,22,14,32,13.60
2018,10,22,14,33,13.60
2018,10,22,14,34,13.60
2018,10,22,14,35,13.60
2018,10,22,14,36,13.60
2018,10,22,14,37,13.60
2018,10,22,14,38,13.70
2018,10,22,14,39,13.70
2018,10,22,14,40,13.70
2018,10,22,14,41,13.80
2018,10,22,14,42,13.80
2018,10,22,14,43,13.80
2018,10,22,14,44,13.80
2018,10,22,14,45,13.80
2018,10,22,14,46,13.90
2018,10,22,14,47,13.90
2018,10,22,14,48,13.90
2018,10,22,14,49,13.90
2018,10,22,14,50,14.00
2018,10,22,14,51,14.00
2018,10,22,14,52,14.10
2018,10,22,14,53,14.10
2018,10,22,14,54,14.00
2018,10,22,14,55,14.00
2018,10,22,14,56,14.00
2018,10,22,14,57,13.90
2018,10,22,14,58,13.90
2018,10,22,14,59,13.90
2018,10,22,15,00,13.80
2018,10,22,15,01,13.80
2018,10,22,15,02,13.80
2018,10,22,15,03,13.80
2018,10,22,15,04,13.80
2018,10,22,15,05,13.80
2018,10,22,15,06,13.80
2018,10,22,15,07,13.90
2018,10,22,15,08,13.90
2018,10,22,15,09,13.90
2018,10,22,15,10,13.90
2018,10,22,15,11,13.90
2018,10,22,15,12,14.00
2018,10,22,15,13,14.00
2018,10,22,15,14,14.10
2018,10,22,15,15,14.10
2018,10,22,15,16,14.10
2018,10,22,15,17,14.10
2018,10,22,15,18,14.10
2018,10,22,15,19,14.10
2018,10,22,15,20,14.20
2018,10,22,15,21,14.20
2018,10,22,15,22,14.20
2018,10,22,15,23,14.20
2018,10,22,15,24,14.20
2018,10,22,15,25,14.30
2018,10,22,15,26,14.30
2018,10,22,15,27,14.30
2018,10,22,15,28,14.30
2018,10,22,15,29,14.30
2018,10,22,15,30,14.30
2018,10,22,15,31,14.30
2018,10,22,15,32,14.30
2018,10,22,15,33,14.30
2018,10,22,15,34,14.30
2018,10,22,15,35,14.30
2018,10,22,15,36,14.40
2018,10,22,15,37,14.30
2018,10,22,15,38,14.30
2018,10,22,15,39,14.30
2018,10,22,15,40,14.30
2018,10,22,15,41,14.20
2018,10,22,15,42,14.10
2018,10,22,15,43,14.10
2018,10,22,15,44,14.10
2018,10,22,15,45,14.10
2018,10,22,15,46,14.10
2018,10,22,15,47,14.10
2018,10,22,15,48,14.10
2018,10,22,15,49,14.10
2018,10,22,15,50,14.10
2018,10,22,15,51,14.10
2018,10,22,15,52,14.10
2018,10,22,15,53,14.10
2018,10,22,15,54,14.10
2018,10,22,15,55,14.10
2018,10,22,15,56,14.10
2018,10,22,15,57,14.00
2018,10,22,15,58,14.00
2018,10,22,15,59,13.90
2018,10,22,16,00,14.00
2018,10,22,16,01,14.00
2018,10,22,16,02,13.90
2018,10,22,16,03,13.90
2018,10,22,16,04,13.90
2018,10,22,16,05,14.00
2018,10,22,16,06,14.00
2018,10,22,16,07,14.00
2018,10,22,16,08,14.00
2018,10,22,16,09,14.00
2018,10,22,16,10,14.00
2018,10,22,16,11,13.90
2018,10,22,16,12,13.90
2018,10,22,16,13,13.90
2018,10,22,16,14,13.80
2018,10,22,16,15,13.80
2018,10,22,16,16,13.80
2018,10,22,16,17,13.80
2018,10,22,16,18,13.80
2018,10,22,16,19,13.80
2018,10,22,16,20,13.80
2018,10,22,16,21,13.80
2018,10,22,16,22,13.80
2018,10,22,16,23,13.80
2018,10,22,16,24,13.80
2018,10,22,16,25,13.80
2018,10,22,16,26,13.80
2018,10,22,16,27,13.80
2018,10,22,16,28,13.80
2018,10,22,16,29,13.90
2018,10,22,16,30,13.90
2018,10,22,16,31,13.90
2018,10,22,16,32,13.90
2018,10,22,16,33,13.90
2018,10,22,16,34,13.90
2018,10,22,16,35,13.90
2018,10,22,16,36,13.90
2018,10,22,16,37,13.90
2018,10,22,16,38,13.90
2018,10,22,16,39,13.90
2018,10,22,16,40,13.90
2018,10,22,16,41,13.90
2018,10,22,16,42,13.90
2018,10,22,16,43,13.90
2018,10,22,16,44,13.90
2018,10,22,16,45,13.80
2018,10,22,16,46,13.80
2018,10,22,16,47,13.80
2018,10,22,16,48,13.80
2018,10,22,16,49,13.80
2018,10,22,16,50,13.80
2018,10,22,16,51,13.80
2018,10,22,16,52,13.80
2018,10,22,16,53,13.80
2018,10,22,16,54,13.80
2018,10,22,16,55,13.70
2018,10,22,16,56,13.70
2018,10,22,16,57,13.70
2018,10,22,16,58,13.70
2018,10,22,16,59,13.60
2018,10,22,17,00,13.60
2018,10,22,17,01,13.60
2018,10,22,17,02,13.50
2018,10,22,17,03,13.50
2018,10,22,17,04,13.50
2018,10,22,17,05,13.40
2018,10,22,17,06,13.40
2018,10,22,17,07,13.40
2018,10,22,17,08,13.40
2018,10,22,17,09,13.40
2018,10,22,17,10,13.40
2018,10,22,17,11,13.40
2018,10,22,17,12,13.30
2018,10,22,17,13,13.30
2018,10,22,17,14,13.30
2018,10,22,17,15,13.30
2018,10,22,17,16,13.30
2018,10,22,17,17,13.30
2018,10,22,17,18,13.30
2018,10,22,17,19,13.20
2018,10,22,17,20,13.20
2018,10,22,17,21,13.20
2018,10,22,17,22,13.10
2018,10,22,17,23,13.10
2018,10,22,17,24,13.00
2018,10,22,17,25,13.00
2018,10,22,17,26,12.90
2018,10,22,17,27,12.90
2018,10,22,17,28,12.80